This demonstration page uses our WeatherBlox Daily Observations layout. Learn more.

Left ArrowRight Arrow

Hourly Observations for February 8, 2022

Temp ( °F °C ) Dew Point ( °F °C ) Humidity (%) Winds ( mph kmh ) Pressure ( in mb ) Visibility ( mi km ) Precip ( " mm )
12:15 am 00:15 Clear 41 5.1 19 -7 42 42 WSW 14 22 30.05 1018 10 16 0.00 0.00
12:35 am 00:35 Clear 39 4.1 19 -7 45 45 WSW 10 17 30.06 1018 10 16 0.00 0.00
12:55 am 00:55 Clear 38 3.6 19 -7 46 46 WSW 9 15 30.05 1018 10 16 0.00 0.00
1:15 am 01:15 Clear 37 3 19 -7.1 48 48 SW 8 13 30.05 1017 10 16 0.00 0.00
1:35 am 01:35 Clear 37 2.5 19 -7.1 50 50 WSW 9 15 30.05 1018 10 16 0.00 0.00
1:55 am 01:55 Clear 38 3.3 19 -7.2 46 46 WSW 15 24 30.03 1017 10 16 0.00 0.00
2:15 am 02:15 Clear 38 3.1 19 -7.5 46 46 WSW 14 22 30.04 1017 10 16 0.00 0.00
2:35 am 02:35 Clear 37 2.7 19 -7.5 47 47 WSW 13 20 30.03 1017 10 16 0.00 0.00
2:55 am 02:55 Clear 35 1.8 19 -7.5 51 51 W 9 15 30.03 1017 10 16 0.00 0.00
3:15 am 03:15 Clear 34 1.1 19 -7.5 53 53 W 9 15 30.02 1017 10 16 0.00 0.00
3:35 am 03:35 Clear 33 0.6 18 -7.7 54 54 W 13 20 30.02 1017 10 16 0.00 0.00
3:55 am 03:55 Clear 33 0.7 18 -7.8 53 53 W 14 22 30.00 1016 10 16 0.00 0.00
4:15 am 04:15 Clear 34 1 18 -7.7 53 53 W 10 17 29.99 1015 10 16 0.00 0.00
4:35 am 04:35 Clear 34 1.2 18 -7.6 52 52 W 13 20 29.98 1015 10 16 0.00 0.00
4:55 am 04:55 Clear 34 1 18 -7.6 53 53 W 14 22 29.99 1015 10 16 0.00 0.00
5:15 am 05:15 Clear 32 0 18 -7.7 57 57 W 13 20 29.99 1016 10 16 0.00 0.00
5:35 am 05:35 Clear 32 0 19 -7.4 58 58 W 12 19 30.00 1016 10 16 0.00 0.00
5:55 am 05:55 Clear 32 -0.2 19 -7.5 58 58 W 10 17 30.00 1016 10 16 0.00 0.00
6:15 am 06:15 Clear 32 0 19 -7.2 59 59 W 13 20 30.00 1016 10 16 0.00 0.00
6:35 am 06:35 Clear 32 0 19 -7.1 59 59 WNW 10 17 30.01 1016 10 16 0.00 0.00
6:55 am 06:55 Clear 31 -0.5 19 -7.2 61 61 WNW 9 15 30.03 1017 10 16 0.00 0.00
7:15 am 07:15 Clear 30 -1.2 18 -7.6 62 62 WNW 6 9 30.04 1017 10 16 0.00 0.00
7:35 am 07:35 Clear 32 0 19 -7 60 60 NW 10 17 30.03 1017 10 16 0.00 0.00
7:55 am 07:55 Sunny 33 0.7 19 -7.2 56 56 NW 8 13 30.04 1017 10 16 0.00 0.00
8:15 am 08:15 Sunny 34 1.2 19 -7.1 54 54 NW 10 17 30.04 1017 10 16 0.00 0.00
8:35 am 08:35 Sunny 36 2.2 19 -7 51 51 NNW 9 15 30.04 1017 10 16 0.00 0.00
8:55 am 08:55 Sunny 39 3.8 20 -6.6 47 47 NNW 9 15 30.04 1017 10 16 0.00 0.00
9:15 am 09:15 Sunny 43 5.9 21 -6.1 42 42 NNW 9 15 30.03 1017 10 16 0.00 0.00
9:35 am 09:35 Sunny 47 8.6 21 -6.2 35 35 N 16 26 30.02 1016 10 16 0.00 0.00
9:55 am 09:55 Sunny 50 10 19 -7 30 30 N 18 30 30.00 1016 10 16 0.00 0.00
10:15 am 10:15 Sunny 52 11.2 19 -7.3 27 27 N 15 24 30.00 1016 10 16 0.00 0.00
10:35 am 10:35 Sunny 53 11.8 17 -8.2 24 24 N 20 31 30.01 1016 10 16 0.00 0.00
10:55 am 10:55 Sunny 55 12.6 17 -8.5 22 22 N 24 39 30.01 1016 10 16 0.00 0.00
11:15 am 11:15 Sunny 56 13.2 16 -8.9 21 21 N 25 41 30.01 1016 10 16 0.00 0.00
11:35 am 11:35 Sunny 58 14.2 15 -9.3 19 19 N 26 43 30.02 1016 10 16 0.00 0.00
11:55 am 11:55 Mostly Cloudy 54 12.4 16 -8.9 22 22 NNW 24 39 30.05 1018 10 16 0.00 0.00
12:15 pm 12:15 Cloudy 54 12.1 17 -8.2 24 24 NNW 18 30 30.05 1018 10 16 0.00 0.00
12:35 pm 12:35 Cloudy 55 12.6 17 -8.3 23 23 NNW 22 35 30.04 1017 10 16 0.00 0.00
12:55 pm 12:55 Partly Cloudy 55 12.8 17 -8.5 22 22 NNW 26 43 30.03 1017 10 16 0.00 0.00
1:15 pm 13:15 Sunny 56 13.6 17 -8.3 21 21 NW 24 39 30.02 1017 10 16 0.00 0.00
1:35 pm 13:35 Sunny 56 13.5 14 -10.2 18 18 NW 25 41 30.01 1016 10 16 0.00 0.00
1:55 pm 13:55 Sunny 57 13.8 13 -10.6 17 17 NNW 23 37 30.01 1016 10 16 0.00 0.00
2:15 pm 14:15 Sunny 57 13.8 13 -10.6 17 17 NNW 22 35 30.01 1016 10 16 0.00 0.00
2:35 pm 14:35 Sunny 57 13.9 12 -10.9 17 17 NW 16 26 30.01 1016 10 16 0.00 0.00
2:55 pm 14:55 Sunny 57 14 13 -10.5 17 17 NW 23 37 30.00 1016 10 16 0.00 0.00
3:15 pm 15:15 Sunny 57 14 12 -11.1 17 17 NNW 23 37 30.01 1016 10 16 0.00 0.00
3:35 pm 15:35 Sunny 57 14 13 -10.7 17 17 NW 20 31 30.01 1016 10 16 0.00 0.00
3:55 pm 15:55 Partly Cloudy 58 14.2 13 -10.7 17 17 NNW 21 33 30.00 1016 10 16 0.00 0.00
4:15 pm 16:15 Partly Cloudy 58 14.2 12 -11 16 16 NNW 15 24 29.99 1015 10 16 0.00 0.00
4:35 pm 16:35 Partly Cloudy 56 13.4 11 -11.5 17 17 NW 15 24 30.00 1016 10 16 0.00 0.00
4:55 pm 16:55 Sunny 56 13.4 12 -11.3 17 17 NW 16 26 30.00 1016 10 16 0.00 0.00
5:15 pm 17:15 Sunny 55 12.7 12 -11.3 18 18 NNW 14 22 30.02 1017 10 16 0.00 0.00
5:35 pm 17:35 Sunny 54 12 11 -11.5 18 18 NNW 14 22 30.03 1017 10 16 0.00 0.00
5:55 pm 17:55 Sunny 51 10.8 12 -11.1 20 20 NNW 12 19 30.05 1017 10 16 0.00 0.00
6:15 pm 18:15 Clear 46 7.7 11 -11.6 24 24 NW 9 15 30.07 1018 10 16 0.00 0.00
6:35 pm 18:35 Clear 45 7.3 11 -11.5 25 25 WNW 7 11 30.08 1019 10 16 0.00 0.00
6:55 pm 18:55 Clear 40 4.7 10 -12.4 28 28 WNW 6 9 30.10 1019 10 16 0.00 0.00
7:15 pm 19:15 Clear 42 5.3 10 -12 28 28 WNW 6 9 30.10 1019 10 16 0.00 0.00
7:35 pm 19:35 Clear 38 3.1 10 -12.5 31 31 WNW 6 9 30.12 1020 10 16 0.00 0.00
7:55 pm 19:55 Clear 37 2.8 9 -12.7 31 31 W 7 11 30.12 1020 10 16 0.00 0.00
8:15 pm 20:15 Clear 39 4 10 -12 30 30 W 8 13 30.11 1020 10 16 0.00 0.00
8:35 pm 20:35 Clear 39 3.9 11 -11.7 31 31 W 8 13 30.11 1020 10 16 0.00 0.00
8:55 pm 20:55 Clear 40 4.5 11 -11.6 30 30 W 9 15 30.09 1019 10 16 0.00 0.00
9:15 pm 21:15 Clear 39 4.1 11 -11.7 31 31 W 8 13 30.11 1020 10 16 0.00 0.00
9:35 pm 21:35 Clear 38 3.2 10 -12.2 32 32 W 6 9 30.11 1020 10 16 0.00 0.00
9:55 pm 21:55 Clear 32 0 8 -13.2 37 37 W 7 11 30.15 1021 10 16 0.00 0.00
10:15 pm 22:15 Clear 32 0 10 -12.5 39 39 W 8 13 30.15 1021 10 16 0.00 0.00
10:35 pm 22:35 Clear 35 1.4 10 -12.1 36 36 WNW 7 11 30.12 1020 10 16 0.00 0.00
10:55 pm 22:55 Clear 32 0.2 10 -12.1 39 39 W 6 9 30.13 1020 10 16 0.00 0.00
11:15 pm 23:15 Clear 33 0.7 10 -12 38 38 WNW 7 11 30.12 1020 10 16 0.00 0.00
11:35 pm 23:35 Clear 32 -0.1 11 -11.7 42 42 W 10 17 30.12 1020 10 16 0.00 0.00
11:55 pm 23:55 Clear 32 0 11 -11.4 42 42 W 8 13 30.11 1020 10 16 0.00 0.00

Powered by AerisWeather